VK2ADG-1 Weather Reports


time (UTC)temp
F
wind
direction
speed
knots
gust
knots
rain 1hr
in
rain 24hr
in
rain mn
in
humidity
%
barometer
mb
20260503202021 59 337 2.6 3.5 0.00 0.01 0.01 90 1015.1
20260503201018 59 334 2.6 4.3 0.00 0.01 0.01 90 1015.1
20260503200016 59 321 2.6 5.2 0.00 0.01 0.01 90 1014.9
20260503195055 59 320 2.6 5.2 0.00 0.01 0.01 91 1014.6
20260503194032 58 319 2.6 4.3 0.00 0.01 0.01 93 1014.6
20260503193029 58 326 2.6 4.3 0.00 0.01 0.01 94 1014.7
20260503192027 58 326 2.6 3.5 0.00 0.01 0.01 94 1014.9
20260503191045 57 333 2.6 3.5 0.00 0.00 0.00 96 1015.0
20260503190022 57 330 1.7 3.5 0.00 0.00 0.00 96 1015.2
20260503185019 58 316 2.6 3.5 0.00 0.00 0.00 95 1015.4
20260503184017 58 324 2.6 3.5 0.00 0.00 0.00 95 1015.5
20260503183035 58 331 2.6 3.5 0.00 0.00 0.00 95 1015.5
20260503182032 58 327 1.7 3.5 0.00 0.00 0.00 95 1015.5
20260503181031 58 323 2.6 3.5 0.00 0.00 0.00 96 1015.6
20260503180028 58 323 1.7 3.5 0.00 0.00 0.00 95 1015.6
20260503175025 58 322 1.7 3.5 0.00 0.00 0.00 95 1015.7
20260503174023 58 317 1.7 2.6 0.00 0.00 0.00 95 1015.8
20260503173021 58 322 2.6 3.5 0.00 0.00 0.00 95 1015.8
20260503172019 58 314 2.6 3.5 0.00 0.00 0.00 94 1015.9
20260503171015 58 313 2.6 4.3 0.00 0.00 0.00 94 1016.1
20260503131020 60 331 2.6 3.5 0.00 0.00 0.00 88 1017.1
20260503081030 66 335 1.7 3.5 0.00 0.00 0.00 73 1017.3
20260503072038 67 5 3.5 5.2 0.00 0.00 0.00 68 1017.0
20260503071036 68 13 3.5 7.0 0.00 0.00 0.00 68 1016.9
20260503055037 72 41 5.2 10.4 0.00 0.00 0.00 58 1017.1
20260503054035 73 36 5.2 9.6 0.00 0.00 0.00 56 1017.1
20260503053032 75 15 3.5 9.6 0.00 0.00 0.00 50 1017.2
20260503052030 75 14 2.6 7.0 0.00 0.00 0.00 49 1017.4
20260503051027 75 18 4.3 9.6 0.00 0.00 0.00 49 1017.4
20260503050044 75 13 3.5 8.7 0.00 0.00 0.00 48 1017.3
20260503045022 75 20 2.6 7.0 0.00 0.00 0.00 49 1017.4
20260503044020 74 16 5.2 9.6 0.00 0.00 0.00 50 1017.5
20260503043059 74 7 2.6 7.0 0.00 0.00 0.00 50 1017.6
20260503042056 74 5 4.3 11.3 0.00 0.00 0.00 50 1017.5
20260503041033 75 345 3.5 12.2 0.00 0.00 0.00 50 1017.5
20260503040030 75 12 4.3 10.4 0.00 0.00 0.00 50 1017.6
20260503035028 75 14 2.6 6.1 0.00 0.00 0.00 50 1017.7
20260503034026 73 341 2.6 7.8 0.00 0.00 0.00 53 1017.9
20260503033023 72 4 3.5 7.0 0.00 0.00 0.00 54 1018.2
20260503032042 72 6 3.5 10.4 0.00 0.00 0.00 54 1018.3
20260503031019 73 7 3.5 7.8 0.00 0.00 0.00 53 1018.5
20260503030017 73 2 3.5 7.8 0.00 0.00 0.00 54 1018.5
20260503025034 71 351 4.3 7.8 0.00 0.00 0.00 56 1018.7
20260503024054 72 17 6.1 10.4 0.00 0.00 0.00 56 1018.8
20260503023030 73 31 5.2 8.7 0.00 0.00 0.00 55 1019.1
20260503022048 72 9 3.5 8.7 0.00 0.00 0.00 55 1019.3
20260503021025 70 26 4.3 7.0 0.00 0.00 0.00 58 1019.5
20260503020044 70 16 2.6 4.3 0.00 0.00 0.00 58 1019.6
20260503015020 71 3 2.6 5.2 0.00 0.00 0.00 58 1019.8
20260503014018 71 17 3.5 7.0 0.00 0.00 0.00 58 1020.0
20260503013055 70 5 4.3 8.7 0.00 0.00 0.00 58 1019.9
20260503012033 71 13 5.2 8.7 0.00 0.00 0.00 58 1020.1
20260503011031 71 24 4.3 11.3 0.00 0.00 0.00 60 1020.2
20260503010028 70 45 4.3 8.7 0.00 0.00 0.00 61 1020.3
20260503005026 69 48 3.5 7.0 0.00 0.00 0.00 64 1020.4
20260503004024 68 32 2.6 7.8 0.00 0.00 0.00 66 1020.7
20260503003021 67 18 3.5 7.0 0.00 0.00 0.00 67 1020.7
20260503002101 67 21 3.5 8.7 0.00 0.00 0.00 69 1020.9
20260503001017 66 15 3.5 6.1 0.00 0.00 0.00 70 1020.9
20260503000035 64 23 3.5 6.1 0.00 0.00 0.00 73 1021.1
20260502235033 64 10 4.3 10.4 0.00 0.00 0.00 75 1021.1
20260502234030 63 16 4.3 7.8 0.00 0.00 0.00 76 1021.0
20260502233027 63 10 5.2 7.0 0.00 0.00 0.00 76 1021.1
20260502232024 62 9 4.3 9.6 0.00 0.00 0.00 77 1021.2
20260502231043 61 16 4.3 7.8 0.00 0.00 0.00 79 1021.1
20260502230020 60 11 3.5 7.8 0.00 0.00 0.00 81 1021.0
20260502225018 60 6 4.3 8.7 0.00 0.00 0.00 81 1021.1
20260502224036 59 22 4.3 7.8 0.00 0.00 0.00 82 1021.0
20260502223034 59 19 5.2 8.7 0.00 0.00 0.00 83 1021.1
20260502222031 59 9 4.3 7.0 0.00 0.00 0.00 83 1021.4
20260502221028 59 10 5.2 7.8 0.00 0.00 0.00 83 1021.3
20260502220027 58 18 3.5 6.1 0.00 0.00 0.00 84 1021.2
20260502215024 58 8 4.3 7.0 0.00 0.00 0.00 85 1021.1
20260502214021 58 1 4.3 7.0 0.00 0.00 0.00 85 1021.1
20260502213039 58 16 4.3 7.8 0.00 0.00 0.00 85 1020.9
20260502212037 58 15 3.5 7.0 0.00 0.00 0.00 86 1020.8
20260502211035 58 17 4.3 7.0 0.00 0.00 0.00 86 1020.9
20260502210032 58 4 3.5 5.2 0.00 0.00 0.00 85 1020.9
20260502205031 58 4 3.5 4.3 0.00 0.00 0.00 85 1020.6
20260502204028 58 5 3.5 5.2 0.00 0.00 0.00 85 1020.4
20260502203046 58 13 3.5 6.1 0.00 0.00 0.00 85 1020.3